| time (UTC) | temp F | wind direction | speed knots | gust knots | rain 1hr in | rain 24hr in | rain mn in | humidity % | barometer mb |
| 20260505024852 | 58 | 256 | 2.6 | 5.2 | 0.00 | 0.00 | 0.00 | 58 | 1009.4 |
| 20260505024354 | 59 | 229 | 2.6 | 5.2 | 0.00 | 0.00 | 0.00 | 58 | 1009.4 |
| 20260505023859 | 59 | 339 | 0.9 | 6.1 | 0.00 | 0.00 | 0.00 | 57 | 1009.4 |
| 20260505023346 | 59 | 227 | 4.3 | 7.0 | 0.00 | 0.00 | 0.00 | 57 | 1009.3 |
| 20260505022850 | 59 | 286 | 1.7 | 7.0 | 0.00 | 0.00 | 0.00 | 57 | 1009.4 |
| 20260505022355 | 59 | 244 | 1.7 | 7.0 | 0.00 | 0.00 | 0.00 | 56 | 1009.4 |
| 20260505021900 | 59 | 244 | 2.6 | 7.8 | 0.00 | 0.00 | 0.00 | 56 | 1009.4 |
| 20260505021346 | 59 | 236 | 2.6 | 7.0 | 0.00 | 0.00 | 0.00 | 55 | 1009.4 |
| 20260505020850 | 60 | 333 | 3.5 | 7.8 | 0.00 | 0.00 | 0.00 | 55 | 1009.3 |
| 20260505020351 | 60 | 221 | 2.6 | 7.8 | 0.00 | 0.00 | 0.00 | 55 | 1009.2 |
| 20260505015920 | 60 | 223 | 1.7 | 9.6 | 0.00 | 0.00 | 0.00 | 54 | 1009.2 |
| 20260505015345 | 60 | 188 | 4.3 | 9.6 | 0.00 | 0.00 | 0.00 | 54 | 1009.1 |
| 20260505014851 | 60 | 226 | 2.6 | 7.0 | 0.00 | 0.00 | 0.00 | 53 | 1009.2 |
| 20260505014357 | 60 | 273 | 3.5 | 7.8 | 0.00 | 0.00 | 0.00 | 53 | 1009.2 |
| 20260505013846 | 61 | 234 | 3.5 | 7.8 | 0.00 | 0.00 | 0.00 | 52 | 1009.1 |
| 20260505013352 | 61 | 230 | 4.3 | 10.4 | 0.00 | 0.00 | 0.00 | 52 | 1009.1 |
| 20260505012858 | 61 | 256 | 1.7 | 10.4 | 0.00 | 0.00 | 0.00 | 51 | 1009.0 |
| 20260505012346 | 61 | 223 | 4.3 | 8.7 | 0.00 | 0.00 | 0.00 | 51 | 1008.9 |
| 20260505011852 | 61 | 215 | 2.6 | 6.1 | 0.00 | 0.00 | 0.00 | 51 | 1008.9 |
| 20260505011359 | 62 | 230 | 3.5 | 7.8 | 0.00 | 0.00 | 0.00 | 50 | 1008.8 |
| 20260505010905 | 62 | 253 | 4.3 | 8.7 | 0.00 | 0.00 | 0.00 | 50 | 1008.7 |
| 20260505010344 | 62 | 229 | 3.5 | 9.6 | 0.00 | 0.00 | 0.00 | 50 | 1008.7 |
| 20260505005854 | 62 | 223 | 4.3 | 13.0 | 0.00 | 0.00 | 0.00 | 50 | 1008.6 |
| 20260505005342 | 62 | 242 | 5.2 | 13.0 | 0.00 | 0.00 | 0.00 | 49 | 1008.4 |
| 20260505004909 | 63 | 237 | 3.5 | 7.8 | 0.00 | 0.00 | 0.00 | 49 | 1008.4 |
| 20260505004416 | 63 | 234 | 1.7 | 7.8 | 0.00 | 0.00 | 0.00 | 49 | 1008.3 |
| 20260505003843 | 63 | 275 | 3.5 | 10.4 | 0.00 | 0.00 | 0.00 | 48 | 1008.1 |
| 20260505003408 | 63 | 272 | 3.5 | 10.4 | 0.00 | 0.00 | 0.00 | 48 | 1008.0 |
| 20260505002854 | 63 | 211 | 2.6 | 7.0 | 0.00 | 0.00 | 0.00 | 48 | 1008.0 |
| 20260505002342 | 64 | 221 | 3.5 | 7.0 | 0.00 | 0.00 | 0.00 | 48 | 1007.8 |
| 20260505001908 | 64 | 221 | 3.5 | 7.8 | 0.00 | 0.00 | 0.00 | 47 | 1007.6 |
| 20260505001355 | 64 | 254 | 3.5 | 7.8 | 0.00 | 0.00 | 0.00 | 47 | 1007.5 |
| 20260505000842 | 64 | 251 | 4.3 | 7.8 | 0.00 | 0.00 | 0.00 | 47 | 1007.3 |
| 20260505000343 | 65 | 227 | 3.5 | 7.8 | 0.00 | 0.00 | 0.00 | 47 | 1007.2 |
| 20260504235852 | 65 | 220 | 2.6 | 7.0 | 0.00 | 0.00 | 0.00 | 46 | 1007.1 |
| 20260504235358 | 65 | 243 | 3.5 | 7.0 | 0.00 | 0.00 | 0.00 | 46 | 1007.1 |
| 20260504234921 | 65 | 218 | 4.3 | 7.8 | 0.00 | 0.00 | 0.00 | 46 | 1007.0 |
| 20260504234402 | 65 | 236 | 4.3 | 9.6 | 0.00 | 0.00 | 0.00 | 45 | 1006.9 |
| 20260504233846 | 66 | 210 | 5.2 | 11.3 | 0.00 | 0.00 | 0.00 | 44 | 1006.8 |
| 20260504233352 | 66 | 224 | 4.3 | 11.3 | 0.00 | 0.00 | 0.00 | 44 | 1006.8 |
| 20260504232858 | 66 | 254 | 4.3 | 12.2 | 0.00 | 0.00 | 0.00 | 44 | 1006.7 |
| 20260504232344 | 67 | 211 | 6.1 | 12.2 | 0.00 | 0.00 | 0.00 | 44 | 1006.5 |
| 20260504231910 | 67 | 308 | 5.2 | 13.0 | 0.00 | 0.00 | 0.00 | 43 | 1006.5 |
| 20260504231354 | 68 | 246 | 7.0 | 13.0 | 0.00 | 0.00 | 0.00 | 42 | 1006.4 |
| 20260504230841 | 68 | 210 | 4.3 | 9.6 | 0.00 | 0.00 | 0.00 | 41 | 1006.2 |
| 20260504230341 | 68 | 221 | 5.2 | 11.3 | 0.00 | 0.00 | 0.00 | 40 | 1006.1 |
| 20260504225853 | 69 | 270 | 4.3 | 12.2 | 0.00 | 0.00 | 0.00 | 40 | 1006.0 |
| 20260504225340 | 69 | 262 | 7.0 | 12.2 | 0.00 | 0.00 | 0.00 | 39 | 1005.9 |
| 20260504224903 | 69 | 242 | 4.3 | 10.4 | 0.00 | 0.00 | 0.00 | 38 | 1005.9 |
| 20260504224349 | 69 | 228 | 3.5 | 11.3 | 0.00 | 0.00 | 0.00 | 38 | 1005.7 |
| 20260504223855 | 70 | 237 | 4.3 | 11.3 | 0.00 | 0.00 | 0.00 | 38 | 1005.7 |
| 20260504223421 | 70 | 242 | 2.6 | 8.7 | 0.00 | 0.00 | 0.00 | 37 | 1005.8 |
| 20260504222845 | 70 | 244 | 4.3 | 12.2 | 0.00 | 0.00 | 0.00 | 36 | 1005.7 |
| 20260504222352 | 71 | 232 | 6.1 | 12.2 | 0.00 | 0.00 | 0.00 | 35 | 1005.6 |
| 20260504221856 | 72 | 218 | 4.3 | 13.0 | 0.00 | 0.00 | 0.00 | 35 | 1005.6 |
| 20260504221403 | 72 | 252 | 5.2 | 8.7 | 0.00 | 0.00 | 0.00 | 33 | 1005.6 |
| 20260504220850 | 73 | 273 | 4.3 | 11.3 | 0.00 | 0.00 | 0.00 | 31 | 1005.5 |
| 20260504220349 | 73 | 257 | 4.3 | 11.3 | 0.00 | 0.00 | 0.00 | 31 | 1005.4 |
| 20260504215859 | 73 | 278 | 3.5 | 11.3 | 0.00 | 0.00 | 0.00 | 31 | 1005.5 |
| 20260504215343 | 73 | 259 | 6.1 | 11.3 | 0.00 | 0.00 | 0.00 | 30 | 1005.6 |
| 20260504214849 | 74 | 259 | 2.6 | 10.4 | 0.00 | 0.00 | 0.00 | 30 | 1005.6 |
| 20260504214357 | 74 | 276 | 4.3 | 13.9 | 0.00 | 0.00 | 0.00 | 30 | 1005.6 |
| 20260504213844 | 74 | 327 | 3.5 | 8.7 | 0.00 | 0.00 | 0.00 | 30 | 1005.6 |
| 20260504213346 | 74 | 299 | 2.6 | 10.4 | 0.00 | 0.00 | 0.00 | 30 | 1005.6 |
| 20260504212910 | 74 | 226 | 5.2 | 10.4 | 0.00 | 0.00 | 0.00 | 30 | 1005.5 |
| 20260504212355 | 73 | 276 | 2.6 | 9.6 | 0.00 | 0.00 | 0.00 | 31 | 1005.5 |
| 20260504211857 | 73 | 281 | 3.5 | 10.4 | 0.00 | 0.00 | 0.00 | 30 | 1005.5 |
| 20260504211345 | 73 | 355 | 4.3 | 9.6 | 0.00 | 0.00 | 0.00 | 31 | 1005.5 |
| 20260504210912 | 74 | 289 | 4.3 | 13.0 | 0.00 | 0.00 | 0.00 | 30 | 1005.5 |
| 20260504210349 | 74 | 263 | 5.2 | 13.0 | 0.00 | 0.00 | 0.00 | 29 | 1005.6 |
| 20260504205858 | 74 | 321 | 1.7 | 8.7 | 0.00 | 0.00 | 0.00 | 30 | 1005.5 |
| 20260504205342 | 74 | 311 | 4.3 | 12.2 | 0.00 | 0.00 | 0.00 | 29 | 1005.6 |
| 20260504204846 | 74 | 301 | 6.1 | 12.2 | 0.00 | 0.00 | 0.00 | 29 | 1005.5 |
| 20260504204351 | 74 | 254 | 4.3 | 11.3 | 0.00 | 0.00 | 0.00 | 29 | 1005.6 |
| 20260504203858 | 74 | 287 | 4.3 | 12.2 | 0.00 | 0.00 | 0.00 | 29 | 1005.7 |
| 20260504203343 | 74 | 248 | 5.2 | 12.2 | 0.00 | 0.00 | 0.00 | 29 | 1005.6 |
| 20260504202850 | 74 | 302 | 3.5 | 14.8 | 0.00 | 0.00 | 0.00 | 29 | 1005.6 |
| 20260504202355 | 74 | 269 | 4.3 | 15.6 | 0.00 | 0.00 | 0.00 | 29 | 1005.6 |
| 20260504201919 | 74 | 243 | 5.2 | 15.6 | 0.00 | 0.00 | 0.00 | 29 | 1005.6 |
| 20260504201344 | 74 | 276 | 5.2 | 10.4 | 0.00 | 0.00 | 0.00 | 29 | 1005.7 |
| 20260504200850 | 74 | 333 | 4.3 | 11.3 | 0.00 | 0.00 | 0.00 | 29 | 1005.6 |
| 20260504200350 | 74 | 294 | 6.1 | 11.3 | 0.00 | 0.00 | 0.00 | 28 | 1005.8 |
| 20260504195839 | 74 | 270 | 2.6 | 10.4 | 0.00 | 0.00 | 0.00 | 29 | 1005.9 |
| 20260504195347 | 73 | 248 | 6.1 | 11.3 | 0.00 | 0.00 | 0.00 | 28 | 1005.8 |
| 20260504194848 | 74 | 324 | 4.3 | 12.2 | 0.00 | 0.00 | 0.00 | 28 | 1005.7 |
| 20260504194415 | 73 | 336 | 5.2 | 13.9 | 0.00 | 0.00 | 0.00 | 28 | 1005.8 |
| 20260504193900 | 73 | 328 | 5.2 | 13.0 | 0.00 | 0.00 | 0.00 | 28 | 1005.8 |
| 20260504193345 | 73 | 250 | 6.1 | 13.0 | 0.00 | 0.00 | 0.00 | 28 | 1005.9 |
| 20260504192912 | 73 | 320 | 4.3 | 11.3 | 0.00 | 0.00 | 0.00 | 28 | 1005.8 |
| 20260504192355 | 73 | 302 | 3.5 | 12.2 | 0.00 | 0.00 | 0.00 | 28 | 1005.9 |
| 20260504191900 | 73 | 304 | 4.3 | 12.2 | 0.00 | 0.00 | 0.00 | 28 | 1005.8 |
| 20260504191347 | 73 | 273 | 6.1 | 15.6 | 0.00 | 0.00 | 0.00 | 27 | 1005.9 |
| 20260504190853 | 73 | 232 | 7.0 | 15.6 | 0.00 | 0.00 | 0.00 | 27 | 1006.0 |
| 20260504190355 | 73 | 265 | 6.1 | 13.9 | 0.00 | 0.00 | 0.00 | 28 | 1006.1 |
| 20260504185844 | 73 | 284 | 4.3 | 10.4 | 0.00 | 0.00 | 0.00 | 28 | 1006.1 |
| 20260504185349 | 72 | 26 | 3.5 | 13.9 | 0.00 | 0.00 | 0.00 | 28 | 1006.1 |
| 20260504184915 | 72 | 279 | 6.1 | 13.9 | 0.00 | 0.00 | 0.00 | 28 | 1006.2 |
| 20260504184419 | 72 | 278 | 6.1 | 13.9 | 0.00 | 0.00 | 0.00 | 27 | 1006.2 |
| 20260504183902 | 72 | 248 | 5.2 | 14.8 | 0.00 | 0.00 | 0.00 | 28 | 1006.2 |
| 20260504183345 | 72 | 275 | 3.5 | 11.3 | 0.00 | 0.00 | 0.00 | 28 | 1006.2 |
| 20260504182853 | 72 | 255 | 6.1 | 11.3 | 0.00 | 0.00 | 0.00 | 28 | 1006.3 |
| 20260504182359 | 72 | 291 | 6.1 | 13.9 | 0.00 | 0.00 | 0.00 | 28 | 1006.4 |
| 20260504181903 | 72 | 312 | 6.1 | 13.9 | 0.00 | 0.00 | 0.00 | 28 | 1006.4 |
| 20260504181349 | 72 | 279 | 4.3 | 20.0 | 0.00 | 0.00 | 0.00 | 29 | 1006.3 |
| 20260504180854 | 72 | 282 | 7.8 | 20.0 | 0.00 | 0.00 | 0.00 | 28 | 1006.5 |
| 20260504180354 | 72 | 239 | 4.3 | 13.0 | 0.00 | 0.00 | 0.00 | 28 | 1006.4 |
| 20260504175846 | 72 | 306 | 5.2 | 12.2 | 0.00 | 0.00 | 0.00 | 29 | 1006.6 |
| 20260504175410 | 72 | 238 | 5.2 | 9.6 | 0.00 | 0.00 | 0.00 | 29 | 1006.6 |
| 20260504174851 | 71 | 294 | 2.6 | 8.7 | 0.00 | 0.00 | 0.00 | 30 | 1006.6 |
| 20260504174416 | 71 | 309 | 4.3 | 12.2 | 0.00 | 0.00 | 0.00 | 29 | 1006.6 |
| 20260504173856 | 71 | 256 | 4.3 | 12.2 | 0.00 | 0.00 | 0.00 | 30 | 1006.8 |
| 20260504173357 | 70 | 313 | 3.5 | 15.6 | 0.00 | 0.00 | 0.00 | 30 | 1006.7 |
| 20260504172902 | 70 | 9 | 7.8 | 19.1 | 0.00 | 0.00 | 0.00 | 30 | 1006.8 |
| 20260504172346 | 70 | 294 | 7.8 | 19.1 | 0.00 | 0.00 | 0.00 | 30 | 1006.8 |
| 20260504171851 | 70 | 321 | 7.0 | 13.9 | 0.00 | 0.00 | 0.00 | 30 | 1006.8 |
| 20260504171359 | 70 | 298 | 5.2 | 14.8 | 0.00 | 0.00 | 0.00 | 30 | 1006.7 |
| 20260504170924 | 70 | 205 | 6.1 | 14.8 | 0.00 | 0.00 | 0.00 | 30 | 1006.7 |
| 20260504170403 | 70 | 306 | 5.2 | 13.0 | 0.00 | 0.00 | 0.00 | 31 | 1006.9 |
| 20260504160412 | 68 | 276 | 4.3 | 17.4 | 0.00 | 0.00 | 0.00 | 34 | 1007.5 |
| 20260504150902 | 68 | 261 | 5.2 | 13.0 | 0.00 | 0.00 | 0.00 | 34 | 1008.1 |
| 20260504150402 | 68 | 298 | 7.0 | 13.0 | 0.00 | 0.00 | 0.00 | 34 | 1008.1 |
| 20260504140903 | 64 | 315 | 3.5 | 12.2 | 0.00 | 0.00 | 0.00 | 39 | 1008.6 |
| 20260504140342 | 64 | 300 | 4.3 | 10.4 | 0.00 | 0.00 | 0.00 | 39 | 1008.6 |
| 20260504130350 | 59 | 291 | 4.3 | 13.0 | 0.00 | 0.00 | 0.00 | 45 | 1009.5 |
| 20260504110404 | 49 | 256 | 0.9 | 3.5 | 0.00 | 0.00 | 0.00 | 58 | 1009.8 |
| 20260504100344 | 46 | 344 | 0.9 | 1.7 | 0.00 | 0.00 | 0.00 | 62 | 1009.8 |
| 20260504081851 | 45 | 331 | 0.0 | 0.0 | 0.00 | 0.00 | 0.00 | 64 | 1009.7 |
| 20260504081359 | 45 | 331 | 0.0 | 0.0 | 0.00 | 0.00 | 0.00 | 64 | 1009.6 |
| 20260504080846 | 45 | 331 | 0.0 | 0.0 | 0.00 | 0.00 | 0.00 | 66 | 1009.7 |
| 20260504080408 | 44 | 331 | 0.0 | 0.0 | 0.00 | 0.00 | 0.00 | 66 | 1009.6 |
| 20260504070357 | 43 | 331 | 0.0 | 0.0 | 0.00 | 0.00 | 0.00 | 72 | 1009.7 |
| 20260504050351 | 40 | 331 | 0.0 | 0.0 | 0.00 | 0.00 | 0.00 | 72 | 1009.7 |
| 20260504045921 | 40 | 331 | 0.0 | 0.0 | 0.00 | 0.00 | 0.00 | 72 | 1009.6 |
| 20260504045345 | 40 | 331 | 0.0 | 0.9 | 0.00 | 0.00 | 0.00 | 72 | 1009.6 |
| 20260504044850 | 40 | 331 | 0.0 | 0.9 | 0.00 | 0.00 | 0.00 | 72 | 1009.7 |
| 20260504044355 | 41 | 331 | 0.0 | 0.9 | 0.00 | 0.00 | 0.00 | 71 | 1009.6 |
| 20260504043921 | 41 | 331 | 0.0 | 1.7 | 0.00 | 0.00 | 0.00 | 71 | 1009.6 |
| 20260504043343 | 41 | 331 | 0.0 | 0.0 | 0.00 | 0.00 | 0.00 | 70 | 1009.7 |
| 20260504042909 | 41 | 331 | 0.0 | 0.0 | 0.00 | 0.00 | 0.00 | 70 | 1009.6 |
| 20260504042354 | 41 | 331 | 0.0 | 0.0 | 0.00 | 0.00 | 0.00 | 69 | 1009.5 |
| 20260504041855 | 41 | 331 | 0.0 | 0.0 | 0.00 | 0.00 | 0.00 | 69 | 1009.6 |
| 20260504041359 | 41 | 331 | 0.0 | 0.0 | 0.00 | 0.00 | 0.00 | 69 | 1009.6 |
| 20260504040903 | 41 | 331 | 0.0 | 0.0 | 0.00 | 0.00 | 0.00 | 69 | 1009.5 |
| 20260504040357 | 41 | 331 | 0.0 | 0.0 | 0.00 | 0.00 | 0.00 | 69 | 1009.4 |
| 20260504035901 | 41 | 331 | 0.0 | 0.9 | 0.00 | 0.00 | 0.00 | 69 | 1009.4 |
| 20260504035347 | 41 | 331 | 0.0 | 0.9 | 0.00 | 0.00 | 0.00 | 69 | 1009.3 |
| 20260504034913 | 41 | 331 | 0.0 | 0.0 | 0.00 | 0.00 | 0.00 | 68 | 1009.3 |
| 20260504034357 | 42 | 331 | 0.0 | 0.0 | 0.00 | 0.00 | 0.00 | 68 | 1009.3 |
| 20260504033902 | 42 | 331 | 0.0 | 0.0 | 0.00 | 0.00 | 0.00 | 68 | 1009.1 |
| 20260504033345 | 42 | 331 | 0.0 | 0.0 | 0.00 | 0.00 | 0.00 | 67 | 1009.2 |
| 20260504032849 | 42 | 331 | 0.0 | 0.0 | 0.00 | 0.00 | 0.00 | 67 | 1009.2 |
| 20260504032352 | 42 | 331 | 0.0 | 0.0 | 0.00 | 0.00 | 0.00 | 66 | 1009.1 |
| 20260504031853 | 43 | 331 | 0.0 | 0.0 | 0.00 | 0.00 | 0.00 | 66 | 1009.2 |
| 20260504031356 | 43 | 331 | 0.0 | 0.0 | 0.00 | 0.00 | 0.00 | 66 | 1009.1 |
| 20260504030900 | 43 | 331 | 0.0 | 0.0 | 0.00 | 0.00 | 0.00 | 66 | 1009.1 |
| 20260504030342 | 43 | 331 | 0.0 | 0.0 | 0.00 | 0.00 | 0.00 | 66 | 1009.1 |
| 20260504025855 | 43 | 331 | 0.0 | 0.0 | 0.00 | 0.00 | 0.00 | 66 | 1009.1 |
| 20260504025341 | 44 | 331 | 0.0 | 0.0 | 0.00 | 0.00 | 0.00 | 66 | 1009.0 |